KMRY Airport Information

Runway Information
Runway 10L Length 3513 ft width 60 ft
Elevation 198 ft Threshold 0 ft Heading 113
Runway 28R Length 3513 ft Width 60 ft
Elevation 256 ft Threshold 0 ft Heading 293
Runway 10R Length 7616 ft width 150 ft
Elevation 155 ft Threshold 0 ft Heading 113
Runway 28L Length 7616 ft Width 150 ft
Elevation 247 ft Threshold 1000 ft Heading 293
Airport Frequencies
Type A/D Name NORCAL APP Frequency 127.15 MHZ
Type ATIS Name ATIS Frequency 119.25 MHZ
Type CLD Name CLNC DEL Frequency 135.45 MHZ
Type CTAF Name CTAF Frequency 118.4 MHZ
Type GND Name GND Frequency 121.9 MHZ
Type TWR Name TWR Frequency 118.4 MHZ
Type UNIC Name UNICOM Frequency 122.95 MHZ
Airport Navaids
Type NDB Name Munso Frequency 385 KHZ
Airport Weather Information & NOTAM
ADDS - METARS form results

(2223 UTC 20 June 2018)
 
METAR text: KMRY 202154Z 28011KT 10SM CLR 16/11 A3004 RMK AO2 SLP184 T01610106 $
Conditions at: KMRY (MONTEREY , CA, US) observed 2154 UTC 20 June 2018
Temperature: 16.1°C (61°F)
Dewpoint: 10.6°C (51°F) [RH = 70%]
Pressure (altimeter): 30.04 inches Hg (1017.4 mb)
[Sea-level pressure: 1018.4 mb]
Winds: from the W (280 degrees) at 13 MPH (11 knots; 5.7 m/s)
Visibility: 10 or more miles (16+ km)
Ceiling: at least 12,000 feet AGL
Clouds: sky clear below 12,000 feet AGL
Weather:
SOME DATA ABOVE MAY BE INACCURATE!!!
"$" is an indication the sensor requires maintenance